Flag for United Kingdom Weather past 2 weeks in Haywards Heath, England, United Kingdom

Now
54 °F

Light rain. Mostly cloudy.


Feels Like: 47 °F
Forecast: 40 / 50 °F
Wind: 25 mph from West

Location: London / Gatwick Airport

Current Time: Mar 31, 2015 at 4:08:51 AM

Latest Report: Mar 31, 2015 at 3:20 AM


Visibility: 4 mi

Pressure: 29.47 "Hg

Humidity: 77%

Dew point: 46 °F

Location of Haywards HeathLocation

Historic Weather in Haywards Heath — Graph

°F

Haywards Heath temperature yesterday

Maximum temperature yesterday: 52 °F (at 1:50 PM)
Minimum temperature yesterday: 41 °F (at 5:20 AM)
Average temperature yesterday: 47 °F

Past Weeks' High & Low Weather Summary

 TemperatureHumidityPressure
High55 °F (Mar 26, 1:20 PM)100% (Mar 16, 2:50 AM)30.51 "Hg (Mar 16, 2:50 AM)
Low27 °F (Mar 23, 2:20 AM)44% (Mar 30, 1:50 PM)29.42 "Hg (Mar 29, 1:20 PM)
Average44 °F79%30.05 "Hg
* Reported Mar 16 1:20 AM — Mar 31 2:50 AM, Haywards Heath, Weather by CustomWeather, © 2015

Note: Actual official high and low records may vary slightly from our data, if they occured in-between our weather recording intervals... More about our weather records

Advertising

Haywards Heath weather history for previous 24 hours

 ConditionsComfort  
Time TempWeatherWind HumidityBarometerVisibility
2:50 AM
Tue, Mar 31
52 °FLight rain. Passing clouds.23 mph88%29.47 "Hg4 mi
2:20 AM50 °FLight rain. Passing clouds.18 mph94%29.47 "Hg2 mi
1:50 AM52 °FPassing clouds.22 mph88%29.47 "Hg4 mi
1:20 AM52 °FPassing clouds.21 mph88%29.47 "HgN/A
12:20 AM52 °FPartly cloudy.18 mph94%29.53 "HgN/A
11:50 PM
Mon, Mar 30
52 °FPartly cloudy.16 mph94%29.56 "Hg6 mi
11:20 PM52 °FPassing clouds.18 mph94%29.56 "Hg4 mi
10:50 PM52 °FPassing clouds.20 mph94%29.56 "Hg4 mi
10:20 PM50 °FPassing clouds.18 mph100%29.59 "Hg4 mi
9:50 PM50 °FPassing clouds.18 mph100%29.59 "Hg4 mi
9:20 PM50 °FPassing clouds.17 mph100%29.62 "Hg3 mi
8:50 PM48 °FLight rain. Passing clouds.13 mph100%29.65 "Hg2 mi
8:20 PM48 °FDrizzle. Partly sunny.14 mph94%29.68 "Hg2 mi
7:50 PM48 °FDrizzle. Partly sunny.14 mph94%29.68 "Hg2 mi
7:20 PM48 °FPartly sunny.13 mph87%29.74 "Hg4 mi
6:50 PM48 °FLight rain. Broken clouds.12 mph82%29.77 "HgN/A
6:20 PM48 °FLight rain. Broken clouds.10 mph76%29.77 "HgN/A
5:50 PM48 °FLight rain. Scattered clouds.14 mph71%29.80 "HgN/A
5:20 PM48 °FPartly sunny.14 mph71%29.83 "HgN/A
4:50 PM50 °FScattered clouds.16 mph62%29.83 "HgN/A
4:20 PM50 °FPassing clouds.13 mph54%29.86 "HgN/A
3:50 PM52 °FPassing clouds.15 mph47%29.86 "HgN/A
3:20 PM52 °FPassing clouds.15 mph47%29.86 "HgN/A
2:50 PM52 °FSunny.14 mph47%29.89 "Hg10 mi
2:20 PM52 °FPassing clouds.12 mph44%29.89 "HgN/A
1:50 PM52 °FSunny.12 mph44%29.89 "Hg10 mi
1:20 PM50 °FSunny.14 mph47%29.89 "Hg10 mi
12:50 PM50 °FPassing clouds.14 mph54%29.92 "HgN/A
12:20 PM50 °FPassing clouds.15 mph47%29.89 "HgN/A
11:50 AM50 °FScattered clouds.14 mph50%29.89 "HgN/A
11:20 AM50 °FPassing clouds.15 mph50%29.89 "HgN/A
10:50 AM50 °FScattered clouds.14 mph54%29.89 "HgN/A
10:20 AM46 °FScattered clouds.14 mph62%29.89 "HgN/A
9:50 AM46 °FScattered clouds.15 mph66%29.86 "HgN/A
9:20 AM46 °FPassing clouds.13 mph66%29.83 "HgN/A
8:50 AM45 °FPassing clouds.12 mph71%29.83 "HgN/A
8:20 AM43 °FSunny.9 mph76%29.83 "Hg10 mi
7:50 AM43 °FSunny.10 mph71%29.80 "Hg10 mi
7:20 AM41 °FClear.12 mph76%29.77 "Hg10 mi
6:50 AM41 °FClear.9 mph81%29.77 "Hg10 mi
6:20 AM41 °FPassing clouds.9 mph76%29.74 "HgN/A
5:50 AM41 °FPassing clouds.9 mph81%29.71 "HgN/A
5:20 AM41 °FClear.10 mph81%29.68 "Hg10 mi
4:50 AM43 °FClear.12 mph76%29.68 "Hg10 mi
4:20 AM43 °FPassing clouds.10 mph81%29.65 "HgN/A
Weather by CustomWeather, © 2015

See weather overviewHow to use our weather pages